This demonstration page uses our WeatherBlox Daily Observations layout. Learn more.

Left ArrowRight Arrow

39.29038, -76.61219

Hourly Observations for August 28, 2020

Temp ( °F °C ) Dew Point ( °F °C ) Humidity (%) Winds ( mph kmh ) Pressure ( in mb ) Visibility ( mi km ) Precip ( " mm )
12:54 am 00:54 Cloudy 79 26.1 63 17.2 58 58 W 7 11 29.86 1011 10 16 0.00 0.00
1:54 am 01:54 Mostly Cloudy 77 25 64 17.8 64 64 W 7 11 29.86 1011 10 16 0.00 0.00
2:54 am 02:54 Cloudy 77 25 64 17.8 64 64 WSW 9 15 29.86 1011 10 16 0.00 0.00
3:54 am 03:54 Mostly Cloudy 76 24.4 64 17.8 67 67 WSW 8 13 29.85 1011 10 16 0.00 0.00
4:54 am 04:54 Mostly Cloudy 74 23.3 64 17.8 71 71 W 8 13 29.85 1011 10 16 0.00 0.00
5:54 am 05:54 Mostly Cloudy 74 23.3 65 18.3 74 74 WSW 6 9 29.86 1011 10 16 0.00 0.00
6:54 am 06:54 Mostly Cloudy 74 23.3 66 18.9 76 76 WSW 6 9 29.87 1012 10 16 0.00 0.00
7:54 am 07:54 Mostly Cloudy 76 24.4 68 20 77 77 W 5 7 29.88 1012 10 16 0.00 0.00
8:54 am 08:54 Mostly Cloudy 80 26.7 69 20.6 69 69 Calm 29.89 1012 10 16 0.00 0.00
9:54 am 09:54 Mostly Cloudy 85 29.4 71 21.7 63 63 WNW 7 11 29.89 1012 10 16 0.00 0.00
10:54 am 10:54 Mostly Cloudy 87 30.6 72 22.2 61 61 W 8 13 29.89 1012 10 16 0.00 0.00
11:54 am 11:54 Mostly Cloudy 90 32.2 73 22.8 58 58 WNW 9 15 29.88 1012 10 16 0.00 0.00
12:54 pm 12:54 Mostly Cloudy 89 31.7 72 22.2 57 57 W 13 20 29.87 1011 10 16 0.00 0.00
1:54 pm 13:54 Mostly Cloudy 87 30.6 72 22.2 61 61 WSW 10 17 29.86 1011 10 16 0.00 0.00
2:54 pm 14:54 Mostly Cloudy 90 32.2 73 22.8 58 58 W 10 17 29.84 1010 10 16 0.00 0.00
3:54 pm 15:54 Partly Cloudy 91 32.8 72 22.2 54 54 WSW 15 24 29.82 1010 10 16 0.00 0.00
4:54 pm 16:54 Mostly Cloudy 83 28.3 68 20 61 61 NNW 20 31 29.83 1010 10 16 0.00 0.00
5:07 pm 17:07 Mostly Cloudy with Thunderstorms 81 27.2 66 18.9 61 61 NNW 17 28 29.82 1010 7 11 0.00 0.00
5:19 pm 17:19 Cloudy with Strong Thunderstorms 76 24.4 68 20 77 77 W 18 30 29.86 1011 2 3 0.01 0.25
5:30 pm 17:30 Mostly Cloudy with Thunderstorms 73 22.8 70 21.1 90 90 WNW 3 6 29.84 1011 3 5 0.39 9.91
5:54 pm 17:54 Mostly Cloudy with Thunderstorms 75 23.9 71 21.7 88 88 W 3 6 29.81 1010 10 16 0.40 10.16
6:06 pm 18:06 Mostly Cloudy 76 24.4 70 21.1 82 82 Calm 29.81 1010 10 16 0.00 0.00
6:46 pm 18:46 Mostly Cloudy with Thunderstorms 76 24.4 72 22.2 88 88 SSW 8 13 29.83 1010 10 16 0.00 0.00
6:54 pm 18:54 Mostly Cloudy with Thunderstorms 75 23.9 72 22.2 90 90 SSW 7 11 29.84 1010 10 16 0.00 0.00
7:11 pm 19:11 Cloudy with Light Rain 75 23.9 72 22.2 90 90 WSW 8 13 29.84 1011 10 16 0.01 0.25
7:54 pm 19:54 Cloudy with Light Rain 75 23.9 71 21.7 88 88 SSW 6 9 29.84 1010 8 13 0.04 1.02
8:54 pm 20:54 Cloudy with Light Rain 75 23.9 72 22.2 90 90 VRB 6 9 29.86 1011 9 14 0.00 0.00
9:54 pm 21:54 Cloudy with Light Rain 74 23.3 72 22.2 94 94 Calm 29.85 1011 7 11 0.06 1.52
10:22 pm 22:22 Cloudy with Thunderstorms 74 23.3 72 22.2 94 94 W 3 6 29.84 1011 6 10 0.03 0.76
10:54 pm 22:54 Cloudy with Thunderstorms 74 23.3 72 22.2 94 94 S 3 6 29.83 1010 5 8 0.11 2.79
11:51 pm 23:51 Cloudy with Light Rain 73 23 72 22 94 94 SSE 7 11 29.81 1010 6 10 0.15 3.81
11:54 pm 23:54 Cloudy with Light Rain 74 23.3 72 22.2 94 94 SSE 8 13 29.81 1010 7 11 0.15 3.81

Powered by AerisWeather